Vichy, MO

7:08 PM CDT on September 29, 2016 (GMT -0500)
Rolla National

Weather History for KVIH - February, 2012

Change the Weather History Date:

Friday, February 3, 2012

  Actual Average Record
Temperature  
Mean Temperature 47 °F 33 °F  
Max Temperature 51 °F 43 °F 75 °F (1962)
Min Temperature 42 °F 23 °F -12 °F (1996)
Degree Days  
Heating Degree Days 18 32  
Month to date heating degree days 54 97  
Since 1 July heating degree days 2570 3065  
Cooling Degree Days 0 0  
Month to date cooling degree days 0 0  
Year to date cooling degree days 0 0  
Moisture  
Dew Point 41 °F    
Average Humidity 75    
Maximum Humidity 100    
Minimum Humidity 50    
Precipitation  
Precipitation 0.99 in 0.06 in 0.99 in (2012)
Month to date precipitation 0.99 0.19  
Year to date precipitation 2.12 2.36  
Sea Level Pressure  
Sea Level Pressure 30.11 in    
Wind  
Wind Speed 13 mph (East)    
Max Wind Speed 25 mph    
Max Gust Speed 32 mph    
Visibility 6 miles    
Events Rain , Thunderstorm    
T = Trace of Precipitation, MM = Missing Value Source: NWS Daily Summary

Daily Weather History Graph

Daily Weather History Graph

Search for Another Location

Airport or City:

Trip Planner

Search our weather history database for the weather conditions in past years. The results will help you decide how hot, cold, wet, or windy it might be!

Date:

Astronomy

Feb. 03, 2012 Rise Set
Actual Time 7:10 AM CST 5:31 PM CST
Civil Twilight 6:42 AM CST 5:59 PM CST
Nautical Twilight 6:11 AM CST 6:30 PM CST
Astronomical Twilight 5:40 AM CST 7:01 PM CST
Moon 1:35 PM CST (2/3) 3:44 AM CST (2/3)
Length of Visible Light 11h 16m
Length of Day
10h 21m
Waxing Gibbous, 82% of the Moon is Illuminated
Feb 3
Waxing Gibbous
Feb 7
Full
Feb 14
Last Quarter
Feb 21
New
Feb 29
First Quarter

Hourly Weather History & Observations

Time (CST) Temp. Windchill Dew Point Humidity Pressure Visibility Wind Dir Wind Speed Gust Speed Precip Events Conditions
12:53 AM 46.9 °F - 32.0 °F 56% 30.23 in 10.0 mi ESE 11.5 mph - N/A   Clear
1:53 AM 46.0 °F 41.4 °F 32.0 °F 58% 30.23 in 10.0 mi ESE 9.2 mph - N/A   Clear
2:53 AM 44.1 °F 39.0 °F 30.9 °F 60% 30.23 in 10.0 mi East 9.2 mph - N/A   Clear
3:53 AM 44.1 °F 39.0 °F 30.9 °F 60% 30.22 in 10.0 mi East 9.2 mph - N/A   Clear
4:53 AM 43.0 °F 38.2 °F 30.9 °F 62% 30.22 in 10.0 mi East 8.1 mph - N/A   Clear
5:53 AM 44.1 °F 38.1 °F 30.9 °F 60% 30.20 in 10.0 mi East 11.5 mph - N/A   Overcast
6:53 AM 45.0 °F 38.9 °F 30.9 °F 58% 30.22 in 10.0 mi ESE 12.7 mph - N/A   Overcast
7:53 AM 46.0 °F 39.3 °F 30.9 °F 56% 30.21 in 10.0 mi ESE 16.1 mph - N/A   Overcast
8:53 AM 46.9 °F - 30.9 °F 54% 30.20 in 10.0 mi ESE 18.4 mph 26.5 mph N/A   Mostly Cloudy
9:53 AM 48.0 °F - 30.9 °F 52% 30.20 in 10.0 mi ESE 17.3 mph 24.2 mph N/A   Overcast
10:53 AM 45.0 °F 38.5 °F 37.9 °F 76% 30.19 in 8.0 mi ESE 13.8 mph - 0.01 in Rain Light Rain
11:53 AM 48.0 °F - 36.0 °F 63% 30.16 in 10.0 mi ESE 21.9 mph 27.6 mph 0.00 in   Overcast
12:53 PM 48.0 °F - 37.9 °F 68% 30.13 in 10.0 mi SE 15.0 mph 26.5 mph 0.00 in   Overcast
1:53 PM 50.0 °F - 39.9 °F 68% 30.10 in 10.0 mi ESE 13.8 mph 21.9 mph N/A   Overcast
2:23 PM 50.0 °F - 39.2 °F 66% 30.10 in 10.0 mi SE 10.4 mph 20.7 mph N/A   Overcast
2:53 PM 48.9 °F - 42.1 °F 77% 30.09 in 5.0 mi ESE 12.7 mph 18.4 mph 0.02 in Rain Light Rain
3:53 PM 46.9 °F - 44.1 °F 90% 30.07 in 2.0 mi ESE 17.3 mph - 0.02 in Rain Light Rain
4:14 PM 46.4 °F 40.1 °F 44.6 °F 93% 30.06 in 1.5 mi ESE 15.0 mph 23.0 mph 0.02 in Rain Rain
4:17 PM 46.4 °F 41.5 °F 44.6 °F 93% 30.07 in 1.5 mi ESE 10.4 mph 23.0 mph 0.03 in Rain Rain
4:32 PM 46.4 °F 42.4 °F 44.6 °F 93% 30.07 in 2.0 mi ESE 8.1 mph - 0.05 in Rain Light Rain
4:40 PM 46.4 °F 41.9 °F 44.6 °F 93% 30.07 in 6.0 mi East 9.2 mph - 0.05 in   Overcast
4:53 PM 46.0 °F 41.4 °F 45.0 °F 96% 30.07 in 3.0 mi ESE 9.2 mph - 0.07 in Rain Light Rain
5:33 PM 46.4 °F 41.9 °F 44.6 °F 93% 30.06 in 10.0 mi ESE 9.2 mph - 0.00 in   Overcast
5:53 PM 46.0 °F 41.0 °F 45.0 °F 96% 30.07 in 4.0 mi ESE 10.4 mph - 0.00 in   Overcast
6:09 PM 46.4 °F 41.1 °F 44.6 °F 93% 30.06 in 2.0 mi ESE 11.5 mph - N/A   Overcast
6:53 PM 45.0 °F 37.4 °F 44.1 °F 97% 30.05 in 2.5 mi ESE 18.4 mph - N/A   Overcast
7:01 PM 44.6 °F 37.2 °F 44.6 °F 100% 30.04 in 3.0 mi ESE 17.3 mph - N/A   Overcast
7:23 PM 46.4 °F 44.3 °F 44.6 °F 93% 30.10 in 1.5 mi WNW 4.6 mph 17.3 mph 0.12 in Rain Heavy Rain
7:31 PM 46.4 °F 44.3 °F 44.6 °F 93% 30.09 in 1.0 mi Variable 4.6 mph - 0.23 in Rain , Thunderstorm Heavy Thunderstorms and Rain
7:42 PM 44.6 °F 43.1 °F 44.6 °F 100% 30.08 in 1.8 mi North 3.5 mph - 0.35 in Rain , Thunderstorm Heavy Thunderstorms and Rain
7:44 PM 44.6 °F 43.1 °F 44.6 °F 100% 30.07 in 2.0 mi North 3.5 mph - 0.36 in Rain , Thunderstorm Heavy Thunderstorms and Rain
7:53 PM 45.0 °F 43.5 °F 45.0 °F 100% 30.09 in 6.0 mi NNE 3.5 mph - 0.36 in Rain , Thunderstorm Light Rain
8:03 PM 44.6 °F 43.1 °F 44.6 °F 100% 30.08 in 7.0 mi North 3.5 mph - 0.00 in Rain Light Rain
8:17 PM 44.6 °F 40.7 °F 44.6 °F 100% 30.07 in 1.8 mi NE 6.9 mph - 0.01 in Rain Light Rain
8:30 PM 44.6 °F 40.7 °F 44.6 °F 100% 30.07 in 1.8 mi NNE 6.9 mph - 0.02 in Rain Light Rain
8:33 PM 44.6 °F 40.7 °F 44.6 °F 100% 30.07 in 2.0 mi NE 6.9 mph - 0.02 in Rain Light Rain
8:41 PM 44.6 °F 40.7 °F 44.6 °F 100% 30.08 in 1.8 mi NNE 6.9 mph - 0.02 in Rain Light Rain
8:53 PM 44.1 °F 40.1 °F 44.1 °F 100% 30.10 in 1.8 mi NNE 6.9 mph - 0.05 in Rain Light Rain
8:58 PM 44.6 °F 40.7 °F 44.6 °F 100% 30.09 in 3.0 mi North 6.9 mph - 0.00 in Rain Light Rain
9:53 PM 44.1 °F 39.0 °F 43.0 °F 96% 30.11 in 2.0 mi North 9.2 mph - 0.14 in Rain Heavy Rain
10:20 PM 44.6 °F 38.8 °F 42.8 °F 93% 30.07 in 3.0 mi ENE 11.5 mph - 0.13 in Rain Heavy Rain
10:43 PM 42.8 °F 35.4 °F 42.8 °F 100% 30.05 in 3.0 mi East 15.0 mph 20.7 mph 0.21 in Rain Heavy Rain
10:53 PM 43.0 °F 35.1 °F 42.1 °F 97% 30.05 in 4.0 mi East 17.3 mph - 0.23 in Rain Rain
11:53 PM 44.1 °F 37.1 °F 43.0 °F 96% 30.04 in 6.0 mi ESE 15.0 mph 26.5 mph 0.08 in Rain Light Rain